Location: Unspecified
(0.0000°N, 0.0000°E)
Time: 05:21:36
(UTC+00:00)

Vanguard 3 - All Passes

Search period start: 21 May 2026 00:00
Search period end: 31 May 2026 00:00
Orbit: 507 x 3205 km, 33.4° (Epoch: 20 May)

Date Brightness Start Highest point End Pass type
(mag) Time Alt. Az. Time Alt. Az. Time Alt. Az.
21 May - 06:16:26 10° S 06:21:18 23° SE 06:28:25 10° E daylight
21 May - 08:24:53 10° WSW 08:32:50 80° NW 08:47:21 10° NE daylight
21 May - 10:37:57 10° W 10:48:13 33° NNW 11:03:14 10° NE daylight
21 May - 12:57:20 10° NW 13:08:00 19° N 13:19:52 10° NNE daylight
21 May - 15:18:14 10° NNW 15:30:28 19° N 15:41:20 10° NE daylight
21 May - 17:34:34 10° NW 17:49:58 35° NNE 18:00:22 10° E daylight
21 May - 19:50:35 10° NW 20:05:08 87° NE 20:13:05 10° SE visible
21 May - 22:10:04 10° W 22:16:35 20° SW 22:21:11 10° S visible
22 May - 07:04:08 10° SW 07:10:23 54° SE 07:21:25 10° ENE daylight
22 May - 09:14:46 10° W 09:23:26 47° NNW 09:38:05 10° NE daylight
22 May - 11:30:39 10° WNW 11:40:47 23° NNW 11:53:48 10° NNE daylight
22 May - 13:51:40 10° NNW 14:02:23 17° N 14:13:19 10° NE daylight
22 May - 16:09:25 10° NNW 16:23:58 26° NNE 16:35:31 10° ENE daylight
22 May - 18:25:00 10° NW 18:41:28 55° NNE 18:51:18 10° ESE visible
22 May - 20:42:25 10° WNW 20:54:46 50° SW 21:01:49 10° SSE visible
23 May - 05:44:44 10° S 05:48:50 20° SE 05:54:33 10° E daylight
23 May - 07:52:59 10° WSW 07:59:58 77° NW 08:12:51 10° NE daylight
23 May - 10:05:53 10° WNW 10:14:57 30° NNW 10:28:25 10° NNE daylight
23 May - 12:24:42 10° NW 12:34:21 18° N 12:45:28 10° NNE daylight
23 May - 14:44:07 10° NNW 14:56:43 20° NNE 15:08:25 10° NE daylight
23 May - 16:59:51 10° NW 17:16:28 38° NNE 17:28:06 10° E daylight
23 May - 19:15:58 10° NW 19:32:04 89° NE 19:41:04 10° SE visible
23 May - 21:35:56 10° W 21:43:59 23° SW 21:49:29 10° S visible
24 May - 06:32:18 10° SW 06:37:48 52° SE 06:47:21 10° ENE daylight
24 May - 08:42:51 10° W 08:50:28 43° NNW 09:03:25 10° NE daylight
24 May - 10:58:32 10° NW 11:07:23 20° NNW 11:18:57 10° NNE daylight
24 May - 13:18:26 10° NNW 13:28:39 17° N 13:39:30 10° NE daylight
24 May - 15:34:59 10° NNW 15:50:14 27° NNE 16:02:55 10° ENE daylight
24 May - 17:50:18 10° NW 18:08:03 58° NNE 18:19:06 10° ESE daylight
24 May - 20:07:57 10° WNW 20:21:51 52° SW 20:29:52 10° SE visible
25 May - 05:13:04 10° S 05:16:27 18° SE 05:20:55 10° E visible
25 May - 07:21:08 10° WSW 07:27:18 73° NNW 07:38:33 10° NE daylight
25 May - 09:34:00 10° WNW 09:41:52 26° NNW 09:53:34 10° NNE daylight
25 May - 11:52:23 10° NW 12:00:49 16° N 12:10:46 10° NNE daylight
25 May - 14:10:18 10° NNW 14:22:53 20° NNE 14:35:12 10° NE daylight
25 May - 16:25:17 10° NW 16:42:45 40° NNE 16:55:39 10° E daylight
25 May - 18:41:18 10° NW 18:58:46 89° SW 19:08:55 10° SE visible
25 May - 21:01:35 10° W 21:11:14 25° SW 21:17:41 10° SSE visible
26 May - 06:00:31 10° SW 06:05:23 51° SE 06:13:32 10° ENE daylight
26 May - 08:11:03 10° W 08:17:43 38° NNW 08:28:51 10° NE daylight
26 May - 10:26:42 10° NW 10:34:10 18° N 10:43:54 10° NNE daylight
26 May - 12:45:33 10° NNW 12:54:58 16° N 13:05:21 10° NE daylight
26 May - 15:00:49 10° NNW 15:16:21 28° NNE 15:30:03 10° ENE daylight
26 May - 17:15:40 10° NW 17:34:24 61° NNE 17:46:46 10° ESE daylight
26 May - 19:33:20 10° WNW 19:48:44 53° SW 19:57:48 10° SE visible
26 May - 22:00:00 10° SW 22:00:58 10° SW 22:01:53 10° SSW visible
27 May - 04:41:24 10° S 04:44:09 16° SE 04:47:33 10° E visible
27 May - 06:49:21 10° WSW 06:54:48 67° NNW 07:04:27 10° NE daylight
27 May - 09:02:18 10° WNW 09:08:59 23° NNW 09:18:43 10° NNE daylight
27 May - 11:20:26 10° NNW 11:27:26 15° N 11:35:44 10° NNE daylight
27 May - 13:36:47 10° NNW 13:49:03 20° NNE 14:01:41 10° ENE daylight
27 May - 15:50:55 10° NW 16:08:50 42° NNE 16:22:58 10° E daylight
27 May - 18:06:38 10° NW 18:25:14 88° SW 18:36:39 10° SE visible
27 May - 20:27:04 10° W 20:38:21 28° SW 20:45:47 10° SSE visible
28 May - 05:28:43 10° SW 05:33:04 49° SE 05:39:59 10° ENE visible
28 May - 07:39:22 10° W 07:45:07 33° NNW 07:54:28 10° NE daylight
28 May - 09:55:11 10° NW 10:01:08 15° N 10:08:42 10° NNE daylight
28 May - 12:13:00 10° NNW 12:21:23 15° N 12:30:53 10° NE daylight
28 May - 14:26:55 10° NNW 14:42:22 29° NNE 14:56:55 10° ENE daylight
28 May - 16:41:10 10° NW 17:00:31 63° NNE 17:14:12 10° ESE daylight
28 May - 18:58:41 10° WNW 19:15:23 54° SW 19:25:38 10° SE visible
28 May - 21:24:04 10° WSW 21:28:17 12° SW 21:31:48 10° SSW visible
29 May - 04:09:41 10° S 04:11:54 14° SE 04:14:28 10° ESE visible
29 May - 06:17:37 10° WSW 06:22:26 61° NNW 06:30:37 10° NE daylight
29 May - 08:30:49 10° WNW 08:36:17 19° NNW 08:43:55 10° NNE daylight
29 May - 10:48:57 10° NNW 10:54:12 13° N 11:00:18 10° NNE daylight
29 May - 13:03:33 10° NNW 13:15:13 20° NNE 13:27:51 10° ENE daylight
29 May - 15:16:46 10° NW 15:34:46 43° NNE 15:50:04 10° E daylight
29 May - 17:32:03 10° NW 17:51:29 87° SW 18:04:12 10° SE daylight
29 May - 19:52:26 10° W 20:05:16 30° SW 20:13:46 10° SSE visible
30 May - 04:56:54 10° SW 05:00:51 49° SE 05:06:43 10° ENE visible
30 May - 07:07:46 10° W 07:12:40 28° NNW 07:20:15 10° NNE daylight
30 May - 09:24:10 10° NNW 09:28:16 13° N 09:33:10 10° NNE daylight
30 May - 11:40:47 10° NNW 11:47:54 14° NNE 11:56:03 10° NE daylight
30 May - 13:53:16 10° NNW 14:08:19 30° NNE 14:23:30 10° E daylight
30 May - 16:06:52 10° NW 16:26:26 65° NE 16:41:28 10° ESE daylight
30 May - 18:24:03 10° WNW 18:41:50 55° SW 18:53:18 10° SE visible
30 May - 20:49:04 10° WSW 20:55:27 15° SW 21:00:31 10° S visible
